{"data":{"norad_id":14129,"epoch":"2026-09-20T01:00:59.779584Z","epoch_age_seconds":50689,"freshness":"FRESH","line1":"1 14129U 83058B   26263.04235856 -.00000060  00000+0  00000+0 0  9998","line2":"2 14129  25.9788 204.0605 5980330 141.6651 281.5604  2.05869937297448","mean_motion":2.05869937,"eccentricity":0.598033,"inclination_deg":25.9788,"raan_deg":204.0605,"arg_perigee_deg":141.6651,"mean_anomaly_deg":281.5604,"bstar":0,"rev_number":29744,"period_min":699.47075371184,"perigee_km":4113.9919819592,"apogee_km":35333.666091864,"semimajor_km":26101.966036911,"source":"CELESTRAK","updated_at":"2026-09-20T09:00:45.226284Z"}}